Wind_Speed
3 3 2 4 5 7 7 7 7 5 3 3 2 3 3 3 5 7 5 6 3 3 5 4 6 6 7 9 9 4 5 7 7 6 6 7 8 9 9 9 10 12 10 6 10 17 21 23 24 26 26 25 26 30 31 29 28 29 29 30 30 30 31 31 31 31 30 30 30 30 30 30 29 28 27 26 25 25 26 27 27 27 25 23 21 21
4 5 3 6 7 8 8 7 5 4 3 2 3 3 3 3 5 8 5 4 2 3 3 2 7 6 8 9 5 3 5 7 9 9 8 8 8 7 7 8 8 8 4 4 8 13 18 20 20 22 24 23 25 27 27 27 28 29 30 32 32 31 32 33 34 33 32 33 32 31 30 30 30 29 28 27 26 25 27 28 28 28 26 24 22 22
4 1 6 8 6 5 4 5 5 4 4 2 2 2 2 4 4 7 6 4 1 3 2 2 5 6 7 7 4 5 7 6 9 10 10 11 10 7 7 7 6 5 4 5 6 9 16 20 20 20 21 23 28 28 27 29 30 29 31 32 32 32 33 35 35 34 33 33 32 28 25 27 28 28 29 28 26 25 27 29 30 29 28 26 24 23
2 4 7 7 6 5 3 1 2 2 2 2 3 3 3 3 1 3 5 5 4 1 0 3 3 4 5 4 4 5 5 4 5 7 7 8 11 11 10 9 8 8 7 7 6 6 11 17 21 22 20 22 25 26 27 29 30 30 31 32 33 34 35 36 36 35 33 31 30 27 23 24 25 25 28 28 27 27 28 29 31 31 30 29 27 25
3 7 6 4 5 5 5 4 4 4 3 2 3 3 3 4 2 4 3 5 4 3 3 5 3 4 4 2 5 3 2 4 3 3 5 6 8 11 11 11 11 11 9 9 9 8 8 12 18 22 22 21 23 26 28 30 32 33 34 35 34 35 35 35 35 33 31 28 27 26 22 21 23 23 25 27 29 30 30 30 31 32 32 31 28 26
5 6 3 3 5 6 6 4 3 3 3 4 2 4 5 5 4 4 4 4 4 3 3 4 2 4 5 2 6 4 3 4 3 1 6 8 7 8 9 10 10 10 10 10 10 9 9 11 15 19 22 23 23 27 30 32 34 35 35 37 36 35 34 34 33 33 31 28 27 27 25 25 26 25 27 32 33 31 31 32 32 32 32 32 30 27
3 2 3 3 3 6 5 3 1 3 5 3 2 4 3 2 3 4 3 4 3 2 3 3 3 3 5 3 5 4 2 4 5 5 6 6 6 7 8 8 8 9 8 9 9 10 11 12 14 18 23 26 27 28 30 30 32 31 31 34 35 35 34 34 35 35 34 31 30 31 33 33 31 30 31 34 34 32 31 32 32 33 33 33 32 29
2 4 5 4 4 5 4 2 2 3 5 2 3 1 2 3 2 1 3 4 1 3 3 5 3 2 3 4 3 2 1 3 5 6 7 5 6 7 7 7 8 10 10 9 9 10 12 14 17 20 24 29 32 31 30 30 31 31 29 30 32 33 32 33 34 35 35 35 34 35 36 34 33 32 31 29 29 30 30 32 33 33 33 34 33 30
2 2 3 4 5 3 0 2 4 2 3 5 4 1 2 1 1 2 5 3 1 1 3 6 3 2 4 5 3 2 3 3 6 7 7 6 5 5 6 6 6 7 9 9 10 11 11 14 21 26 29 32 33 32 33 33 32 32 31 30 30 30 30 31 32 34 35 37 38 37 36 34 34 34 28 26 27 28 30 31 33 34 34 35 34 32
2 3 3 2 1 2 4 5 4 3 1 4 1 3 3 4 3 4 5 2 3 4 1 5 4 1 3 5 4 2 4 2 6 6 6 7 6 6 5 6 7 6 5 6 8 10 12 16 23 27 29 32 33 34 36 36 33 31 31 30 31 31 31 31 32 33 35 38 36 35 35 34 35 31 24 24 27 28 30 31 33 34 35 35 35 33
5 3 2 3 2 4 4 3 1 1 3 2 4 3 4 6 4 3 3 3 4 3 4 5 1 2 1 5 3 0 1 2 2 1 4 6 7 6 4 4 5 5 5 5 5 6 9 13 16 18 21 25 28 29 31 32 32 32 32 32 33 33 33 32 32 33 34 35 34 34 35 35 34 30 24 25 28 29 32 32 34 35 35 35 35 34
7 4 1 2 3 1 1 1 2 3 3 3 4 3 3 3 4 4 4 3 4 2 5 3 1 3 1 4 3 3 5 3 3 2 4 6 7 7 6 5 4 4 4 4 4 4 4 5 8 11 16 20 22 24 26 28 30 31 32 34 33 32 31 32 32 33 34 35 35 36 36 35 33 31 29 29 30 31 33 32 32 32 33 34 35 35
5 2 3 4 3 2 4 2 3 6 5 5 4 4 3 2 3 2 3 2 1 3 2 3 3 1 3 6 4 3 5 6 3 2 3 5 7 7 7 7 6 5 4 3 4 4 4 5 6 9 14 17 21 24 28 28 28 29 31 33 34 33 33 32 32 34 35 37 38 36 35 34 33 32 32 32 31 32 33 32 31 31 33 34 35 35
4 4 6 6 3 2 4 3 2 4 4 4 3 3 2 2 3 1 3 1 1 3 2 4 3 1 3 5 4 5 6 6 5 4 4 5 6 7 7 7 7 7 6 4 3 3 4 5 6 9 13 16 19 24 27 28 28 29 30 32 35 36 36 35 34 34 35 37 39 37 35 34 33 33 34 33 32 32 34 34 33 34 34 35 35 36
2 3 4 3 2 3 3 2 1 1 1 1 3 4 2 3 3 2 2 1 2 2 3 4 1 2 2 3 4 5 5 5 6 4 3 5 6 5 6 7 7 8 7 6 5 4 5 4 6 10 14 16 19 22 25 27 28 28 29 32 35 36 37 38 37 37 37 37 38 37 36 34 34 34 34 33 32 31 32 33 33 34 36 36 37 37
2 3 6 3 3 2 4 2 2 4 2 2 2 4 1 2 3 2 2 3 2 1 2 2 2 3 3 5 4 1 1 2 4 5 5 5 6 5 6 6 6 6 7 7 6 6 5 5 6 9 13 17 21 23 25 26 27 28 29 31 34 36 36 38 39 39 39 38 37 37 36 35 34 34 33 33 32 32 32 33 34 35 36 37 37 36
2 4 6 5 4 2 2 2 1 3 0 2 2 1 2 3 5 4 1 1 4 2 2 2 2 4 4 6 5 5 5 4 3 5 5 5 6 6 6 6 6 6 6 6 6 7 6 5 6 9 13 16 20 23 26 28 29 29 30 30 31 32 31 34 37 38 38 37 36 37 37 36 35 34 35 35 34 34 33 32 34 35 35 35 36 36
0 4 5 4 3 5 1 2 2 2 2 2 1 2 2 1 3 4 2 3 4 1 3 2 2 4 2 3 6 8 6 3 2 1 3 6 5 5 5 6 7 7 7 8 7 7 6 6 7 9 12 15 19 23 26 30 31 31 31 32 32 31 31 33 35 37 38 38 37 37 37 37 37 36 36 36 35 34 33 32 33 34 35 35 36 36
1 3 5 1 2 7 3 5 3 5 3 3 2 2 1 2 1 1 2 0 1 1 3 3 3 3 2 4 6 8 6 6 5 2 1 3 4 5 5 6 8 8 8 8 8 8 7 7 10 13 15 16 16 19 24 27 29 30 32 33 34 34 33 32 33 34 36 37 39 39 39 38 37 36 35 34 33 33 31 31 31 32 34 35 36 36
1 1 4 3 3 5 5 4 2 5 5 3 2 2 2 3 2 1 1 2 1 1 2 3 3 3 4 5 4 6 7 6 7 6 3 2 2 3 5 6 7 8 8 8 8 9 9 9 12 16 18 20 20 18 19 22 25 29 30 31 32 33 32 31 32 32 33 33 35 36 38 38 36 35 33 32 32 31 31 31 32 33 33 34 35 35
1 1 3 5 4 3 2 1 2 1 2 3 3 4 3 2 1 0 1 1 2 2 1 1 3 5 5 4 5 7 7 6 6 6 6 4 0 2 5 5 6 6 7 8 8 9 10 10 15 19 19 20 21 20 19 18 22 27 29 29 31 31 31 32 34 35 34 34 33 33 35 36 36 34 32 31 31 31 33 34 33 33 33 33 34 35
1 1 1 4 4 3 3 4 4 4 2 2 1 2 1 1 2 2 1 2 1 1 2 2 3 6 5 3 4 4 3 5 5 5 6 6 4 3 6 6 6 6 6 8 8 9 9 9 14 19 20 20 20 19 20 20 21 24 27 29 30 30 32 34 35 36 35 35 34 33 33 34 34 33 31 30 30 31 33 34 33 32 32 33 34 34
1 2 0 3 3 5 8 6 1 4 3 4 3 2 2 2 3 4 1 2 2 1 1 2 1 6 5 2 1 2 3 5 6 6 8 10 8 6 6 6 6 6 7 7 8 9 9 10 15 18 19 19 18 18 19 20 20 22 26 29 29 30 33 35 35 35 34 33 33 34 33 30 30 31 31 31 31 31 32 34 33 32 32 33 33 33
0 2 1 3 3 4 6 5 4 3 4 5 3 3 3 2 2 3 3 2 0 1 0 1 2 6 5 2 2 1 7 9 8 8 11 12 12 11 10 9 8 7 8 7 8 8 9 12 15 16 16 18 17 17 18 19 21 23 25 26 28 31 34 34 33 33 33 33 33 32 32 30 29 29 30 32 33 33 32 32 32 32 32 33 33 33
1 1 1 2 3 3 4 4 4 4 4 3 2 3 3 3 2 1 1 2 1 2 3 2 4 5 4 4 6 9 11 12 11 10 11 12 13 13 13 12 11 11 11 9 9 9 11 13 13 12 15 18 18 17 17 19 21 23 25 26 28 31 33 32 32 33 34 34 33 32 32 31 30 30 31 33 35 34 33 31 31 31 31 32 32 32
0 1 0 1 1 1 2 2 1 2 3 1 1 3 3 3 3 2 1 2 0 1 2 3 5 9 7 5 9 11 10 13 15 13 11 10 11 13 12 12 11 11 11 12 12 10 10 12 13 13 17 20 21 20 17 18 21 24 26 27 29 31 31 31 32 33 34 34 34 34 34 33 32 33 34 35 34 33 32 31 31 31 31 31 31 31
2 0 2 3 3 3 4 4 1 2 2 2 1 3 3 2 3 2 1 1 0 2 3 5 8 14 14 7 8 12 12 14 16 14 12 11 11 12 13 13 14 12 12 13 12 12 11 12 14 16 18 22 24 23 20 18 20 23 25 28 30 31 30 31 33 33 33 34 34 35 35 34 33 33 33 33 32 29 28 29 30 32 32 32 30 30
2 1 2 4 5 6 6 6 3 2 2 2 2 3 3 2 3 2 1 1 0 1 4 4 5 13 17 14 14 16 15 13 14 15 15 13 13 14 15 16 17 16 15 14 13 14 14 14 14 15 18 21 25 26 24 20 20 22 24 27 30 31 31 32 34 34 34 34 34 34 35 36 36 35 32 30 29 27 27 28 29 31 32 31 30 31
2 1 2 2 4 6 5 6 6 3 1 2 3 3 4 5 4 2 2 3 2 3 6 7 8 13 17 17 17 16 14 14 15 15 15 16 17 18 18 19 20 19 18 17 16 16 16 15 15 14 17 21 23 26 26 22 21 21 22 25 29 31 34 35 35 35 34 33 34 36 37 37 36 36 34 31 29 29 30 31 31 31 31 30 30 31
2 1 3 3 5 6 5 4 3 2 2 4 3 3 4 5 5 5 5 6 6 8 10 11 14 16 16 15 15 14 13 14 14 15 16 18 19 19 19 20 20 20 20 19 18 17 16 17 17 16 17 20 22 25 26 25 23 22 23 24 26 30 33 35 35 35 34 34 35 37 36 35 34 34 34 32 31 31 31 32 32 31 30 31 30 29
1 2 4 4 4 4 4 2 1 2 4 6 4 3 3 5 5 5 5 5 6 8 10 11 13 15 12 9 10 12 13 15 16 17 18 18 18 19 19 20 20 21 21 21 20 18 18 18 18 18 17 19 23 25 26 27 25 24 24 24 24 28 31 33 34 34 34 35 36 34 32 32 33 32 32 31 31 31 31 32 32 31 31 31 30 29
2 2 3 4 3 3 4 2 1 4 6 5 8 8 6 6 6 5 6 6 6 8 10 9 9 9 9 9 11 15 16 17 19 19 18 17 18 20 22 22 23 22 22 22 20 19 19 19 20 20 18 21 25 26 27 29 27 24 24 24 24 25 28 31 33 33 33 33 32 29 27 27 28 28 28 28 28 30 30 30 31 32 32 32 31 31
2 2 2 3 2 3 5 5 1 3 4 3 7 7 5 6 9 9 8 7 7 6 6 6 7 9 11 13 16 19 19 19 19 17 16 18 20 22 23 24 25 25 24 23 22 21 21 19 18 20 21 24 27 29 30 31 28 26 27 27 25 24 25 29 32 32 32 31 30 29 28 28 27 25 23 23 24 26 27 29 31 33 34 34 33 32
2 2 1 2 2 3 7 6 2 3 3 1 3 4 4 6 10 11 11 12 10 5 5 7 10 13 14 14 16 19 20 21 20 17 17 19 20 21 23 24 25 26 24 24 23 22 21 19 18 21 26 30 32 33 33 32 31 31 30 28 26 24 24 27 30 31 31 32 31 31 31 32 32 30 27 24 23 22 24 29 33 35 35 35 34 33
2 2 1 2 1 2 5 5 3 3 1 2 5 4 5 7 8 11 14 13 8 6 6 9 12 15 16 17 17 19 20 22 21 20 21 22 20 20 22 23 25 26 25 23 24 23 22 21 19 21 26 32 34 34 33 32 32 32 30 28 26 25 25 27 29 29 30 31 33 34 35 34 33 31 29 27 25 24 27 32 35 34 33 32 32 33
2 2 1 1 2 1 3 3 2 1 1 2 4 4 4 5 6 10 12 9 5 3 5 9 14 17 18 19 18 18 19 21 19 17 19 21 20 19 19 21 23 25 26 24 24 24 24 24 24 24 28 32 34 33 32 34 34 32 29 27 26 25 26 26 27 28 28 28 31 34 36 35 32 29 28 28 28 29 33 38 38 35 33 31 31 33
3 2 1 2 2 2 2 3 1 1 1 3 5 5 4 5 6 5 7 10 7 2 4 11 18 19 20 20 19 19 19 18 15 11 12 15 17 19 20 21 22 24 26 26 27 28 30 33 34 33 32 33 34 34 34 35 34 31 28 27 25 25 26 25 25 28 29 29 31 34 35 34 32 31 31 31 31 34 39 41 39 35 34 32 31 31
4 3 2 2 2 2 1 2 2 2 1 3 7 7 6 7 6 3 4 7 4 1 8 15 18 19 19 20 20 20 18 15 13 10 10 14 19 22 22 21 20 21 21 23 25 28 31 35 37 35 32 32 34 36 36 35 32 29 26 24 24 24 24 25 26 28 29 30 32 33 34 34 34 35 35 34 34 37 40 40 37 35 34 33 32 32
5 3 3 4 3 3 2 1 1 0 1 3 8 8 8 8 3 2 3 5 3 7 14 16 16 19 19 19 21 19 15 12 12 12 14 19 22 22 20 19 18 18 20 22 24 25 27 31 34 34 32 31 32 36 36 34 31 27 24 24 24 23 23 25 28 29 30 32 33 33 34 34 35 35 36 36 37 39 39 37 35 33 32 32 32 33
5 3 3 4 3 3 3 1 1 1 2 5 7 8 9 8 1 2 4 6 8 15 17 14 17 20 18 18 19 16 12 12 13 16 19 23 23 21 19 17 16 18 19 21 25 27 26 26 26 25 25 28 31 34 35 34 30 26 25 24 22 21 23 27 31 33 34 35 34 34 34 34 34 36 37 39 40 40 38 36 33 31 30 30 31 31
2 2 2 2 1 2 2 1 2 2 3 4 7 8 10 8 2 3 6 9 14 18 16 15 18 19 17 17 15 12 12 14 16 19 22 23 23 21 19 17 17 18 18 19 23 24 21 19 18 19 22 27 31 32 33 32 27 25 25 22 20 22 27 31 32 34 34 33 33 34 35 35 35 36 38 38 38 37 35 34 32 30 30 29 29 28
2 2 1 1 1 2 1 1 2 3 4 4 7 8 7 6 4 4 7 10 13 16 15 16 17 16 17 17 14 13 15 18 19 21 22 22 22 21 19 17 17 18 18 19 19 17 14 12 13 16 20 25 28 29 31 29 25 24 23 19 20 27 32 32 31 32 32 32 32 34 36 37 36 36 35 35 34 33 32 32 32 31 30 28 27 27
1 1 2 2 1 1 1 2 3 2 4 6 8 6 4 4 4 7 9 10 11 13 14 14 14 15 16 16 16 17 18 19 20 20 20 21 21 19 18 17 16 15 14 13 14 13 9 5 5 7 12 19 23 25 27 27 23 21 19 19 26 33 32 30 31 32 31 32 32 32 34 37 38 37 35 33 32 32 32 33 31 29 27 26 25 25
0 0 1 1 2 1 2 2 2 3 6 6 5 2 3 4 5 7 9 10 10 11 11 10 12 16 16 16 17 18 18 19 20 20 20 20 20 18 17 16 15 14 11 9 13 18 15 6 2 2 3 12 17 21 26 27 23 18 18 24 30 31 28 29 31 31 31 32 33 32 33 34 36 35 33 32 33 33 32 31 28 26 25 25 24 23
2 3 2 1 2 1 1 3 4 5 6 5 2 4 5 7 7 7 8 9 9 9 8 9 12 16 17 17 17 17 16 17 19 19 20 20 19 18 16 15 14 14 13 11 13 16 15 11 9 8 2 6 14 20 25 26 22 18 20 25 26 25 27 29 29 29 30 30 31 32 32 32 32 33 33 33 34 32 29 27 25 24 24 24 24 23
3 2 2 1 3 2 2 5 4 4 6 6 5 4 5 6 7 7 7 8 9 10 9 9 12 14 15 15 15 15 15 17 18 18 19 19 19 18 16 15 15 15 14 13 13 14 12 11 11 10 6 2 9 17 22 24 25 23 23 23 24 25 27 28 28 29 29 29 29 30 30 30 30 31 32 31 30 29 27 25 25 24 24 24 24 24
3 1 1 0 2 1 2 5 5 5 7 7 6 6 6 6 6 6 6 7 9 11 11 11 13 14 13 14 15 16 17 18 18 17 17 17 18 17 16 15 15 15 14 13 14 16 12 8 7 6 5 4 2 9 16 21 25 25 24 24 25 26 27 27 27 27 26 26 26 26 27 29 28 28 28 28 27 26 24 24 24 24 24 24 24 23
1 1 1 1 1 1 3 7 7 7 7 6 5 5 6 6 7 8 7 7 8 10 12 12 12 12 12 14 15 16 17 18 18 17 16 15 16 15 15 15 15 15 17 18 20 19 15 10 8 7 6 9 10 5 5 9 12 16 23 27 28 27 27 27 27 26 25 24 25 24 25 26 26 26 26 26 25 24 23 22 23 22 22 22 21 22
2 1 1 1 1 2 4 6 6 6 6 6 5 5 6 6 7 9 9 9 9 11 13 14 13 12 12 13 14 15 17 17 18 18 16 15 16 16 15 15 16 17 19 21 22 22 20 16 15 15 16 19 20 16 9 6 5 5 13 21 24 26 27 26 26 26 26 25 25 25 25 25 25 25 25 24 24 22 21 21 21 21 20 19 19 19
2 2 1 1 1 2 4 3 1 2 5 6 6 7 8 7 7 9 10 10 10 11 12 14 16 15 14 14 15 15 15 16 18 18 16 14 16 18 17 16 16 18 21 24 24 25 24 23 22 22 23 25 27 24 19 16 14 11 7 8 14 19 22 24 24 24 25 26 26 25 25 25 25 24 23 23 22 21 20 19 18 18 18 17 17 18
4 4 4 3 2 4 6 6 3 2 4 6 6 7 8 6 6 9 10 10 10 12 12 12 14 15 15 16 17 17 15 16 18 19 17 15 17 20 22 21 18 17 21 26 25 23 23 25 25 24 23 24 26 26 23 21 18 14 10 5 4 7 12 18 19 19 21 23 24 25 25 24 23 22 21 21 20 20 20 20 19 19 19 18 18 19
Wind_Direction
82 60 336 258 256 260 244 212 209 227 201 171 176 194 232 258 277 273 252 260 242 159 254 214 169 201 211 233 247 223 200 198 205 208 201 207 202 197 199 200 198 203 212 187 172 183 186 193 197 197 200 194 182 186 194 195 196 196 191 191 193 195 193 192 196 198 199 203 207 211 213 215 216 215 216 218 218 214 213 214 216 218 215 214 214 215
57 62 296 266 255 258 252 224 212 239 235 201 209 230 263 233 249 269 254 268 244 160 279 179 158 211 219 229 243 169 181 202 206 199 189 201 208 201 200 207 207 203 193 137 154 169 177 191 199 201 202 193 188 192 193 193 196 196 193 193 194 194 193 194 197 197 199 204 207 210 212 212 212 212 211 213 213 210 212 215 217 219 218 217 216 217
27 16 283 288 288 282 256 216 195 223 232 201 186 176 252 246 261 285 286 310 344 143 271 208 173 233 239 239 240 177 183 207 215 203 187 189 198 203 199 204 204 183 159 157 159 159 172 184 193 206 208 196 195 199 198 197 199 196 193 194 193 193 194 196 198 198 202 206 209 213 216 214 213 212 212 212 209 206 211 217 219 220 220 219 219 222
4 260 271 302 328 1 16 329 134 160 225 171 145 138 231 261 281 278 296 334 350 62 145 159 175 277 289 274 247 215 212 237 238 221 213 198 193 200 200 197 195 183 167 163 165 166 170 174 186 202 210 203 197 198 200 199 198 196 196 195 194 195 197 197 198 201 204 206 210 216 222 222 218 215 215 214 213 211 213 220 222 223 223 222 222 224
245 253 273 323 354 30 51 30 63 86 0 316 167 159 255 292 267 229 285 337 348 9 54 85 47 313 331 293 249 274 292 276 283 238 252 254 218 207 204 201 199 191 178 169 173 174 168 174 187 197 204 206 202 200 201 199 198 199 201 201 200 200 199 198 198 200 202 204 208 213 220 224 222 221 217 213 214 214 214 221 224 225 225 225 224 225
257 258 298 354 4 36 68 43 33 89 28 335 232 203 249 288 283 276 328 12 37 1 341 65 56 288 322 287 250 309 331 254 300 264 227 242 241 226 212 208 203 194 183 176 175 170 170 177 184 193 199 204 206 205 204 201 200 201 202 203 202 200 199 198 197 198 199 202 207 209 210 212 213 215 214 211 211 212 214 221 226 226 227 228 226 225
272 296 33 18 19 42 53 35 354 115 78 358 242 197 245 308 279 280 358 52 88 258 295 64 132 245 318 293 247 314 303 239 295 298 245 227 228 232 221 208 200 194 185 178 177 170 171 177 179 189 197 202 207 209 207 206 204 202 202 202 201 200 199 198 198 199 198 201 207 211 211 211 210 211 214 213 210 210 216 223 226 228 229 228 227 224
284 339 11 18 40 47 40 18 283 130 95 309 253 173 323 339 283 236 82 79 169 243 328 15 92 133 307 273 254 331 177 231 278 280 267 244 220 232 236 221 203 196 191 182 183 182 179 181 182 187 194 202 207 206 205 207 207 205 204 203 202 201 200 198 199 199 200 203 208 212 215 216 215 217 217 214 209 209 217 225 226 228 229 228 227 223
255 314 340 10 26 24 32 239 250 137 100 267 255 49 351 8 99 83 88 90 1 34 343 334 25 107 268 280 307 30 120 205 254 257 270 276 262 259 264 260 245 220 205 193 191 193 190 187 186 187 193 203 207 204 205 208 209 207 205 203 202 202 201 200 200 201 203 207 210 211 214 217 221 223 220 212 210 211 217 224 225 226 228 227 226 222
244 216 206 101 47 261 244 251 235 150 273 280 131 71 33 51 55 60 82 94 38 51 264 296 353 86 265 294 317 27 90 189 246 259 276 287 287 267 251 255 264 268 249 219 205 198 196 196 195 192 193 200 205 204 206 208 209 207 204 201 201 203 203 201 202 204 205 208 210 211 212 216 222 226 221 210 209 211 215 219 221 223 225 225 224 221
285 265 173 132 195 223 234 260 228 179 273 342 64 51 26 24 18 37 51 73 57 12 257 260 349 99 269 288 276 247 96 179 174 341 303 301 309 300 277 261 251 254 255 241 235 227 211 204 200 197 197 202 205 206 206 207 207 205 202 199 201 203 203 201 201 204 206 207 209 212 214 216 221 224 220 209 205 208 211 213 216 219 221 223 223 220
332 5 11 258 253 254 352 340 357 344 340 58 62 50 39 348 0 25 358 34 79 276 262 274 1 103 168 263 242 229 267 270 122 86 327 310 312 313 311 312 295 260 247 234 234 242 228 205 191 194 203 206 205 205 208 208 207 204 201 199 200 202 202 201 200 201 205 207 209 213 215 216 219 220 218 212 206 205 209 211 212 215 218 220 222 219
345 353 320 318 311 14 44 28 346 349 13 49 55 58 68 346 10 14 317 7 144 237 277 341 355 102 210 246 241 222 255 269 236 206 305 303 303 315 321 323 323 312 302 271 236 215 198 194 189 194 202 204 203 205 207 207 205 203 202 200 199 201 203 203 201 201 202 205 209 212 213 215 216 217 216 215 211 208 210 212 210 212 215 217 218 218
342 315 340 7 347 6 76 84 358 332 358 35 69 88 95 101 66 301 271 352 260 251 318 332 333 303 274 269 236 209 224 247 251 247 272 284 290 307 314 320 323 321 325 320 291 260 218 203 198 199 202 202 205 209 208 207 205 203 203 203 202 203 204 203 202 202 202 205 209 211 214 216 216 216 215 216 216 212 212 212 211 213 216 217 217 218
19 314 326 14 321 336 40 113 151 147 14 9 154 135 115 142 137 201 220 179 225 265 319 318 317 173 214 233 208 210 229 254 270 273 301 305 298 306 314 321 326 322 322 326 317 290 259 239 222 212 206 205 209 212 211 209 206 204 204 205 206 206 205 204 203 203 204 206 208 210 215 217 217 218 217 217 219 217 215 213 213 215 217 218 221 221
71 255 263 283 262 304 2 309 158 107 55 285 163 96 46 184 142 107 166 169 160 356 317 295 241 204 227 264 267 268 45 1 311 327 10 342 319 339 336 321 321 314 310 318 319 305 290 277 256 238 223 214 211 211 213 212 210 208 209 210 211 210 206 204 204 203 205 206 206 208 213 216 218 219 219 218 220 222 222 218 217 219 219 219 222 223
28 278 279 326 301 275 353 301 226 92 122 287 67 78 255 184 120 103 155 32 67 72 287 281 266 294 316 298 312 26 54 62 36 358 348 319 320 340 324 309 310 302 301 306 308 307 306 296 272 255 241 229 220 214 212 213 213 212 213 213 216 215 209 206 205 205 205 205 205 207 211 214 217 219 220 220 220 222 225 223 221 221 221 220 222 224
32 287 292 351 320 284 319 75 19 35 114 92 80 215 237 58 79 106 125 7 45 107 277 308 269 294 332 288 319 355 3 359 34 19 316 305 314 314 292 297 303 300 305 309 310 312 313 315 307 287 263 245 232 224 219 216 215 214 215 216 216 216 212 209 208 206 205 203 203 206 209 212 216 219 221 221 220 222 224 225 223 222 222 223 223 225
174 299 293 305 289 295 341 73 23 339 33 98 172 203 106 80 353 33 95 21 25 256 293 317 291 270 202 224 295 321 323 320 317 322 296 271 283 292 292 303 308 313 322 322 326 329 327 329 327 321 310 290 263 241 230 224 218 214 215 216 215 216 215 212 209 208 207 205 203 204 208 212 215 218 220 221 221 221 222 225 225 224 225 225 225 226
172 356 287 284 300 312 350 50 22 323 345 17 41 18 43 127 160 206 135 156 166 213 281 318 317 268 227 220 247 277 286 298 304 312 317 279 267 290 294 303 311 319 323 321 325 325 323 326 325 326 324 317 304 280 253 235 223 218 215 214 214 214 213 210 209 209 209 208 206 205 207 210 213 216 219 220 221 221 222 226 228 228 227 226 226 226
18 48 269 292 324 352 357 39 152 149 355 5 25 7 338 359 55 84 47 78 124 159 174 293 302 270 246 214 210 253 284 303 311 319 321 319 4 228 263 283 295 302 306 310 315 316 315 317 318 322 324 324 320 304 279 252 231 223 218 214 213 211 208 208 208 208 209 210 210 209 208 209 211 214 217 220 221 222 225 228 228 228 228 227 227 227
41 49 274 307 333 338 290 261 183 154 122 104 80 22 350 346 35 80 348 334 43 115 164 170 283 271 254 225 227 256 324 345 331 322 313 308 297 253 249 254 263 272 285 293 300 305 307 309 310 314 319 322 322 311 291 268 242 228 222 218 215 210 208 208 208 208 208 208 209 211 212 212 210 210 213 217 221 223 227 230 230 228 228 228 228 228
144 114 291 290 289 285 292 299 174 152 117 94 87 64 87 80 74 103 192 284 357 339 200 121 287 271 268 267 165 97 21 337 316 313 318 315 308 298 278 264 260 256 262 276 287 295 299 299 301 304 308 310 311 308 296 276 255 237 228 223 217 213 211 210 209 208 207 207 208 210 213 213 211 209 210 214 220 223 226 230 232 230 229 230 230 228
68 67 358 298 299 298 307 347 52 83 77 68 46 40 67 64 68 129 177 183 32 279 234 76 280 270 273 253 169 10 332 328 326 330 331 322 315 317 312 304 300 287 275 270 276 287 291 292 295 298 299 300 300 301 295 279 261 246 236 228 221 218 216 212 209 206 204 205 207 208 209 211 211 209 209 214 219 222 224 226 227 228 228 229 229 229
315 357 47 351 334 334 338 0 12 12 38 51 357 20 54 52 39 56 110 84 29 236 169 161 249 253 256 296 319 330 335 330 324 325 324 314 310 313 312 309 306 301 296 288 281 284 289 292 292 290 290 292 293 292 289 279 263 249 240 232 224 221 219 213 209 205 203 203 203 205 208 209 209 209 211 216 219 220 221 223 222 224 226 226 226 227
119 194 122 2 310 302 312 308 298 327 347 358 12 29 40 42 33 18 60 91 354 254 181 193 264 274 281 317 322 321 328 319 311 312 311 303 302 302 304 304 301 297 295 292 290 284 282 286 288 286 285 286 287 285 279 274 264 251 241 235 228 223 218 213 208 205 203 202 201 204 207 208 208 209 211 216 220 219 220 221 221 223 225 226 225 225
101 177 212 212 232 247 266 275 191 156 284 295 23 23 19 34 28 29 98 143 221 297 268 243 263 282 291 310 313 309 315 310 305 308 307 303 302 301 300 299 295 293 289 287 288 285 280 280 280 282 282 281 281 281 274 268 261 251 243 237 231 225 219 212 207 205 203 201 202 205 206 205 207 209 210 213 217 219 220 221 222 225 228 228 227 227
98 313 243 211 239 252 260 281 284 196 256 313 15 4 344 359 26 58 133 210 232 302 278 261 273 287 292 302 307 306 309 306 304 308 308 307 306 302 299 297 293 290 287 284 283 280 278 276 274 277 279 277 277 278 273 264 258 252 245 240 234 227 221 214 208 205 203 202 203 205 206 206 206 207 208 210 213 218 222 224 225 226 227 228 228 229
125 259 252 222 267 273 266 284 294 279 281 44 39 358 337 345 358 359 251 237 214 237 267 284 292 286 287 295 299 299 303 305 304 304 304 303 302 299 297 295 293 290 288 283 279 277 275 273 270 269 273 273 272 273 271 264 257 254 249 243 237 229 223 218 211 208 206 204 204 205 206 206 205 203 203 204 208 213 220 225 226 225 225 226 226 226
115 300 308 298 297 297 284 268 287 331 77 86 56 0 343 329 307 285 265 251 244 249 261 278 284 280 278 284 291 297 302 299 298 298 297 295 294 293 292 290 288 287 285 282 277 272 269 268 267 263 266 269 266 265 267 264 258 254 250 245 238 230 224 219 213 209 207 205 206 206 204 203 202 199 196 197 201 207 213 219 223 221 222 225 225 224
31 359 334 326 309 302 301 260 171 114 125 110 70 27 349 332 312 291 280 274 271 267 265 273 278 277 277 283 295 302 301 298 298 298 296 295 294 293 290 287 284 281 280 278 275 271 267 264 263 260 258 261 261 260 260 262 259 254 249 245 239 232 225 218 213 209 206 205 207 207 203 199 198 196 193 193 198 203 207 212 216 218 219 222 225 227
358 338 326 335 327 297 317 350 94 154 152 103 38 11 347 345 336 309 291 281 279 281 284 283 278 279 291 307 305 298 296 296 295 295 297 299 297 296 293 290 286 282 279 275 271 268 265 261 259 258 255 255 256 255 254 255 255 250 246 244 242 237 228 218 213 209 204 203 204 202 198 195 192 189 189 192 198 204 207 210 214 217 218 219 222 225
356 344 333 341 332 285 311 342 39 146 142 61 4 340 315 326 324 310 298 286 276 274 284 287 280 284 298 307 303 300 300 298 296 298 300 297 295 293 289 287 285 283 280 277 273 268 263 259 256 254 252 251 251 250 248 249 248 246 244 243 244 239 228 218 215 210 203 198 194 190 187 185 181 176 178 186 197 205 210 213 215 217 217 217 218 219
10 29 350 338 337 296 315 336 43 100 83 24 295 263 253 303 314 308 302 298 290 273 250 262 275 286 294 298 296 296 298 295 293 293 291 288 288 287 284 282 281 278 276 274 272 268 262 258 253 250 249 248 247 248 247 245 243 244 243 242 241 237 226 218 214 211 203 195 190 186 184 184 181 177 178 188 199 207 214 220 220 219 219 217 215 214
7 27 9 332 311 288 320 353 56 79 94 222 247 246 235 253 275 290 291 285 276 267 260 268 282 291 295 296 293 292 290 289 289 289 285 280 278 277 278 278 277 276 274 270 266 264 261 256 251 246 244 244 244 244 244 241 239 239 238 235 233 230 226 219 214 211 205 197 192 189 189 191 190 187 188 196 206 213 221 227 226 221 220 218 214 214
29 17 17 327 309 315 344 5 60 112 218 251 275 278 259 262 291 311 308 299 297 295 286 293 298 299 300 299 296 293 290 289 287 282 276 275 273 271 270 270 270 271 270 267 263 259 256 254 250 243 240 240 239 238 238 236 233 232 231 228 225 224 223 219 215 213 209 203 197 195 196 197 196 195 196 199 204 209 216 223 224 220 219 218 217 216
84 59 13 343 357 37 349 314 282 190 329 343 328 323 325 313 310 314 307 306 310 296 304 315 312 307 305 303 301 301 300 298 294 283 273 275 279 281 278 275 273 270 268 268 265 260 255 251 248 243 236 234 233 232 232 232 227 224 223 220 217 217 216 214 214 213 211 209 205 201 199 197 193 194 197 198 200 205 211 218 219 216 214 215 216 217
76 69 72 46 22 39 18 327 343 28 51 341 325 329 332 310 289 229 265 291 289 297 324 322 313 307 308 308 308 311 311 307 303 302 304 303 301 298 293 287 281 275 270 269 268 265 258 250 246 241 233 228 228 228 228 228 222 216 216 215 211 207 204 206 212 213 210 211 208 202 198 195 192 192 194 196 200 206 211 214 215 213 211 211 214 218
30 44 77 70 33 17 34 33 354 38 184 303 317 326 327 316 293 177 247 268 288 327 327 322 312 310 314 314 314 316 316 313 310 312 317 315 310 307 304 299 293 285 280 275 272 270 264 253 243 235 227 222 224 225 225 223 217 210 210 211 206 199 195 199 208 210 210 211 210 204 198 194 193 192 192 196 202 208 212 212 212 212 211 212 214 217
8 2 29 45 30 0 12 1 272 233 250 301 320 328 324 318 338 95 312 305 324 328 326 321 316 316 317 317 317 319 319 316 313 314 317 316 315 314 312 307 300 293 288 283 277 272 269 258 241 226 217 215 218 220 220 218 212 206 209 209 202 196 196 201 205 207 208 209 208 204 198 194 194 194 194 196 201 206 210 211 211 212 213 213 216 219
351 328 4 46 13 339 1 335 292 269 256 298 331 332 323 320 355 20 330 311 317 321 320 319 317 315 316 317 316 316 313 310 306 308 314 317 319 321 318 313 308 302 296 292 285 275 268 259 237 214 207 210 214 215 213 209 204 203 207 203 195 199 208 211 208 205 204 205 205 202 198 195 194 195 197 200 202 204 207 211 213 214 213 214 217 219
335 303 317 47 5 337 339 292 307 276 255 310 345 336 331 344 352 328 305 299 307 313 315 317 315 312 315 316 312 309 309 308 309 312 317 321 324 325 322 321 322 315 306 304 299 283 265 251 231 212 205 205 208 209 205 198 196 202 202 193 194 209 217 215 209 203 199 199 200 198 196 194 194 195 197 200 201 202 206 211 213 214 213 213 215 217
1 341 334 341 327 334 338 345 9 312 283 337 1 350 350 9 327 295 297 303 308 310 312 314 312 312 316 315 313 314 313 313 316 319 321 324 326 329 328 328 330 325 316 324 333 326 305 258 214 202 200 199 203 201 192 187 192 198 194 194 206 215 215 209 203 199 196 195 196 196 194 191 191 192 194 196 200 203 206 209 210 212 214 214 214 216
324 108 345 303 281 358 18 356 342 271 285 334 9 327 291 300 282 286 303 308 311 315 315 314 312 314 317 317 317 318 317 318 322 324 327 330 331 332 333 335 337 333 326 335 348 349 349 351 14 27 168 193 202 197 187 186 191 189 190 203 212 212 205 198 196 193 191 191 193 193 193 192 190 193 196 199 201 203 205 206 207 209 213 214 214 214
220 181 149 190 251 251 221 236 247 268 291 311 291 237 263 287 289 292 300 300 306 314 314 312 314 315 317 320 321 321 321 323 325 328 332 335 335 335 337 340 342 340 342 351 354 350 349 347 341 344 348 193 199 195 189 188 188 185 194 205 206 198 192 189 187 185 186 188 189 190 192 192 192 194 197 199 200 200 200 201 203 205 208 211 211 209
247 181 126 178 271 283 257 253 271 301 303 297 283 263 272 289 292 296 303 304 309 312 314 317 316 313 316 322 324 324 324 326 328 332 335 336 337 339 342 346 350 347 347 357 2 355 343 331 324 320 316 248 189 185 186 189 190 192 196 196 189 184 184 182 179 181 184 185 186 187 187 188 190 192 195 196 197 199 199 199 200 202 203 204 205 206
280 174 126 247 307 340 292 280 295 302 292 290 294 296 297 295 289 297 309 307 304 310 317 320 317 315 321 329 331 328 326 328 333 336 337 338 340 340 343 349 357 356 350 354 6 12 10 353 329 316 320 357 104 167 181 188 193 193 187 180 176 175 176 175 175 177 179 180 181 182 183 185 186 188 190 191 192 194 196 197 198 199 198 197 199 202
239 142 178 235 220 204 250 275 289 290 284 280 276 279 295 302 302 307 311 304 303 311 318 321 323 327 332 335 334 330 328 333 339 340 338 339 341 343 346 350 356 359 359 359 4 15 23 18 6 4 11 23 32 53 160 181 188 182 170 165 166 167 167 170 173 174 176 177 177 177 179 180 180 180 182 184 185 187 189 193 196 198 198 200 203 204
147 144 192 182 295 293 286 295 310 320 314 305 296 296 302 306 310 314 315 314 318 324 327 330 335 338 339 337 336 335 334 336 339 340 341 343 343 345 350 353 356 2 7 6 8 17 24 21 17 19 20 20 24 27 30 36 46 104 144 153 159 162 163 164 168 170 172 172 172 172 174 175 176 178 178 180 182 186 189 193 197 200 204 210 215 219
173 212 205 84 28 289 270 265 289 337 313 298 300 312 311 311 320 322 323 328 333 334 336 338 337 338 342 343 341 341 341 339 339 341 344 347 346 347 352 358 0 4 9 12 15 20 24 23 22 22 19 16 19 24 24 25 31 40 68 128 152 159 162 163 163 165 168 170 173 175 177 178 180 181 182 183 185 189 193 199 205 208 211 217 222 229
183 190 179 156 191 233 246 245 221 206 261 272 290 308 307 314 331 328 325 333 336 334 338 341 338 337 341 343 345 347 345 343 343 345 347 350 350 350 355 2 5 6 10 15 17 19 22 25 25 24 19 15 17 21 21 19 22 26 28 53 133 157 164 164 164 165 169 173 177 180 182 184 185 187 189 191 193 196 199 202 209 215 220 226 229 233
Height
767 769 772 772 770 768 767 768 767 768 769 768 768 768 768 769 764 755 752 747 744 746 746 746 748 746 742 737 735 738 738 736 736 739 741 740 740 741 742 743 743 743 739 738 743 746 749 753 758 761 763 764 766 771 774 774 774 776 779 783 785 787 789 792 795 797 798 800 802 804 805 805 807 809 811 812 815 817 819 820 822 823 824 826 827 828
769 772 773 769 768 767 766 768 768 768 769 768 769 769 769 770 762 751 749 748 745 747 748 748 747 744 740 735 736 739 738 736 734 736 740 739 739 740 740 743 742 742 741 740 743 745 748 752 756 760 761 761 764 769 770 771 774 775 778 781 783 785 787 790 792 793 794 796 799 801 802 804 806 807 808 810 812 815 818 819 820 822 823 824 826 827
772 772 770 765 765 766 765 767 768 768 768 769 770 770 766 765 761 752 747 747 745 744 747 748 745 742 739 736 739 739 735 734 732 732 734 734 737 739 739 741 742 743 744 743 744 744 746 749 753 758 760 760 762 766 767 769 772 775 777 780 782 783 785 787 790 791 792 794 798 802 804 806 807 806 807 809 811 814 815 817 819 820 821 823 824 826
775 771 766 765 765 763 762 765 767 767 767 769 769 767 763 762 761 753 747 747 746 746 747 748 745 742 741 738 737 737 734 731 730 731 732 731 733 734 735 737 739 741 743 744 744 744 745 747 750 754 758 760 761 764 765 767 770 773 775 777 779 781 782 784 787 788 791 794 799 803 806 809 809 807 808 809 810 811 813 815 816 818 819 821 822 824
774 768 764 765 766 762 760 762 763 762 762 765 766 763 760 758 757 754 751 750 748 749 749 748 748 746 744 740 734 735 737 732 730 732 732 732 731 730 731 733 735 737 739 742 743 743 745 746 747 750 754 758 759 761 763 764 766 768 771 774 776 778 780 782 784 787 791 795 799 802 806 809 809 808 807 807 807 808 810 812 814 815 817 819 820 822
771 768 766 765 765 764 761 762 764 762 761 762 761 759 758 757 755 754 754 752 751 752 752 752 755 752 748 744 737 737 738 733 731 732 732 733 732 730 731 732 733 735 737 739 740 741 743 744 747 749 752 755 757 758 760 762 763 765 768 772 774 776 778 780 782 785 789 793 797 800 803 804 804 804 802 801 801 804 807 809 812 814 815 817 819 820
769 768 767 765 766 765 763 763 764 763 763 763 759 757 757 757 756 754 752 752 755 757 757 757 757 756 751 743 742 743 738 733 733 731 730 732 733 732 730 730 731 734 736 738 739 740 740 742 744 747 750 752 753 755 759 761 763 765 768 771 772 774 776 777 779 782 785 790 794 797 798 798 798 798 796 796 798 801 805 808 810 812 814 815 817 818
769 767 766 766 766 766 765 764 762 762 764 762 757 756 757 756 755 755 752 751 757 758 756 758 756 758 755 744 747 751 740 735 735 731 730 730 732 733 730 730 730 730 733 735 737 737 737 738 739 742 746 748 750 752 757 760 761 763 767 769 772 773 774 776 778 780 783 786 790 794 796 796 795 795 794 796 798 799 803 807 808 810 812 813 815 816
769 768 766 767 769 768 764 762 761 761 762 758 756 758 759 758 757 757 753 753 761 760 756 760 759 760 759 747 748 752 744 741 738 732 732 731 733 734 732 731 730 729 730 731 733 733 733 735 735 736 740 743 746 749 752 755 757 760 763 765 769 771 773 775 777 779 782 784 787 791 794 794 793 793 794 795 797 798 801 804 806 807 809 811 812 814
767 766 765 767 770 768 761 760 760 760 759 757 758 760 759 762 762 761 759 755 759 762 761 765 764 763 760 747 743 746 745 745 742 737 737 735 733 733 731 731 730 729 730 730 731 731 731 732 732 732 735 738 742 745 747 750 754 757 759 762 764 767 770 773 776 778 780 783 786 788 790 791 791 792 794 794 794 797 799 801 803 804 806 808 810 812
767 764 765 766 766 764 760 761 762 761 761 759 759 757 756 762 762 762 765 760 762 768 766 768 769 765 762 752 743 745 746 744 740 738 738 736 732 730 728 729 729 729 729 729 730 731 731 732 733 734 735 738 741 744 746 748 751 754 756 759 761 764 767 770 773 776 779 783 785 787 788 789 789 791 792 792 792 794 796 798 800 801 804 806 807 809
766 762 765 766 763 763 760 761 762 762 762 760 759 758 759 764 764 763 765 763 769 774 767 770 772 767 764 754 744 746 747 744 740 737 737 736 733 731 729 728 729 729 728 728 729 730 731 731 733 735 736 738 742 744 745 746 749 751 753 755 758 761 765 767 770 773 777 781 784 785 787 787 788 789 790 790 789 791 793 795 798 800 802 804 805 807
767 764 768 765 762 763 762 763 763 762 761 759 760 763 765 772 774 772 774 774 775 774 769 772 772 767 763 750 741 747 747 742 741 739 736 736 735 732 731 729 728 729 729 728 729 729 730 731 732 733 735 738 740 741 742 744 747 750 752 753 755 757 761 764 767 770 773 778 781 784 785 786 786 787 789 789 788 788 791 794 796 798 800 801 803 804
772 767 768 764 763 763 764 767 768 766 763 762 765 767 769 777 781 783 788 788 781 774 773 777 773 767 762 749 744 749 747 742 741 741 739 738 737 736 734 732 730 729 728 728 730 730 730 730 731 732 734 737 739 739 740 742 745 747 750 751 752 753 756 760 764 767 770 773 777 781 783 784 785 785 786 787 787 787 789 791 793 795 798 799 800 802
785 777 771 768 767 765 764 766 767 766 766 768 771 770 769 773 777 780 784 782 779 777 776 775 771 764 757 748 747 749 748 747 743 743 744 740 739 739 736 733 731 729 729 729 730 730 730 731 731 731 732 734 737 738 740 741 743 744 746 748 749 750 752 755 759 762 765 768 772 777 780 782 783 784 784 785 785 786 787 789 792 793 795 797 799 801
793 784 773 770 771 767 766 766 764 764 767 773 774 770 769 770 771 781 789 787 784 782 779 776 771 765 755 746 747 751 750 751 747 743 744 741 739 739 736 734 733 731 731 730 730 729 729 731 732 731 732 733 734 736 738 739 740 742 743 745 747 747 748 751 754 756 759 763 767 771 775 778 780 782 782 783 784 784 785 787 789 791 793 795 798 800
793 785 772 771 770 764 766 766 763 765 768 772 773 770 773 774 771 779 793 798 795 786 782 782 772 764 759 746 741 745 747 750 751 746 744 743 742 741 738 735 734 733 732 731 731 730 729 730 731 732 732 733 733 733 734 736 737 738 740 743 745 746 747 749 750 753 755 759 764 767 771 774 777 778 779 780 781 782 783 785 787 789 791 794 797 798
797 789 776 774 771 763 766 767 763 765 767 769 772 771 773 776 773 775 782 790 794 789 785 788 780 769 767 756 741 740 743 747 751 751 750 748 745 744 741 738 736 734 733 733 732 731 730 729 729 730 730 731 732 732 731 732 733 734 736 739 742 744 745 747 748 751 753 755 758 763 766 769 772 774 775 776 778 780 782 783 785 788 789 791 794 796
798 793 778 776 775 767 765 765 765 766 766 768 771 770 772 775 775 778 781 783 790 794 789 790 791 781 771 762 748 743 745 745 747 750 752 750 747 747 746 744 741 738 736 735 733 732 730 729 729 728 728 727 728 729 730 730 731 732 733 735 737 739 741 744 747 750 752 752 753 757 761 765 768 770 772 774 776 778 780 781 783 786 787 789 792 793
796 795 782 776 776 772 766 767 773 773 769 768 769 771 773 775 776 779 783 783 785 792 792 790 788 776 765 761 753 747 747 746 746 748 750 753 754 753 751 748 746 743 740 738 736 734 731 730 729 729 728 726 725 726 727 729 730 730 730 732 733 736 738 742 745 748 751 752 753 755 757 760 764 767 770 772 774 776 777 779 781 783 786 788 790 791
794 796 788 778 774 774 772 772 777 777 775 774 773 776 777 777 780 780 784 787 784 786 795 796 786 769 761 758 751 747 748 748 750 752 753 756 758 756 754 751 748 746 744 741 738 736 733 731 729 728 728 727 725 724 724 726 727 727 728 729 730 732 735 738 741 744 747 749 752 754 754 755 759 762 766 769 771 773 774 776 778 780 783 786 788 789
794 797 795 788 781 779 776 774 774 774 776 778 778 782 783 781 782 781 785 791 788 786 793 799 789 769 757 754 749 750 752 752 754 755 754 754 755 756 754 751 749 747 745 743 740 737 734 732 729 728 727 726 725 724 724 724 725 725 726 727 727 729 731 733 736 739 742 744 747 750 752 753 755 758 762 766 768 770 771 773 775 777 781 783 784 787
792 797 799 794 786 782 778 776 776 775 774 777 780 783 786 786 786 787 790 793 794 793 793 798 793 770 755 754 753 753 754 754 754 753 752 751 749 751 751 749 749 747 745 744 741 738 735 732 730 727 726 726 724 724 724 723 723 724 724 725 726 727 728 729 732 735 738 740 742 745 748 752 754 755 758 761 764 766 768 770 772 775 778 780 782 784
791 797 799 794 787 781 777 776 777 776 776 781 785 787 788 788 788 790 793 794 796 795 791 795 792 769 755 756 755 753 753 752 752 752 752 749 746 745 747 746 746 745 744 743 741 738 735 732 729 727 724 724 723 723 723 722 722 722 722 723 724 724 724 726 728 731 734 736 738 742 745 748 751 753 755 757 759 762 764 767 770 773 775 777 779 781
792 797 799 798 792 784 780 780 778 778 783 789 792 792 791 791 791 791 793 795 797 794 790 792 786 765 755 755 752 752 754 752 753 753 753 751 747 744 744 743 743 743 741 741 740 738 735 731 728 726 723 722 721 721 721 721 721 720 720 720 721 721 722 724 725 727 729 731 734 738 741 744 747 749 751 753 755 757 761 764 767 770 773 775 777 779
793 798 799 800 800 795 790 789 788 788 793 796 795 795 794 794 795 795 796 799 799 796 794 792 780 761 754 756 756 755 757 756 754 753 753 752 749 745 743 742 740 740 739 737 736 736 734 731 727 724 721 719 718 719 719 719 719 718 717 717 717 718 720 722 723 724 725 728 730 733 736 739 742 744 745 748 751 754 757 761 764 766 769 772 774 776
794 799 798 798 800 798 794 793 796 800 799 796 796 798 798 799 799 798 799 801 799 799 795 788 779 768 758 760 761 759 759 759 755 752 752 751 749 746 743 740 738 736 735 734 732 731 730 729 726 722 720 718 716 715 716 717 716 716 715 714 714 716 717 719 720 721 722 724 727 729 731 734 737 739 742 744 748 752 755 758 760 763 765 768 770 772
795 797 796 797 797 796 794 793 797 801 800 798 799 800 800 801 802 801 801 799 799 802 794 781 781 779 766 761 764 762 760 760 756 753 751 749 748 746 742 739 735 732 731 730 729 727 725 725 723 720 717 715 713 712 712 714 713 713 712 711 712 713 714 715 717 717 719 721 723 725 727 729 731 735 738 741 745 749 752 755 758 760 762 765 767 769
797 798 795 797 796 794 794 794 794 798 802 802 802 801 800 802 802 802 801 798 799 802 793 782 785 786 773 765 765 762 760 759 757 755 752 749 747 744 741 738 733 729 727 725 724 722 720 718 718 716 714 712 711 708 707 709 709 709 709 709 709 710 711 712 713 714 715 717 718 720 722 725 728 730 733 737 741 745 749 752 755 758 760 762 763 765
798 798 795 797 798 794 792 792 792 797 802 803 803 802 802 802 803 802 801 799 799 799 794 789 790 785 774 768 765 762 760 760 757 755 752 748 746 742 739 736 731 726 722 719 718 716 714 712 711 711 710 707 706 705 703 703 704 704 705 705 706 706 707 708 709 710 711 712 714 716 718 722 725 727 728 731 736 741 745 749 753 755 757 759 760 762
798 799 798 799 800 796 790 788 791 797 801 802 803 803 803 803 802 801 800 799 799 798 794 793 793 782 769 766 767 764 762 759 756 753 749 745 741 738 734 730 726 722 717 713 711 709 708 705 703 703 704 702 701 700 698 697 698 699 700 700 701 702 703 705 706 706 706 707 710 714 717 719 721 724 724 727 732 738 742 747 751 753 755 756 757 759
801 802 802 802 803 800 792 789 794 798 798 799 801 803 805 805 803 801 800 798 798 797 794 792 790 778 766 766 767 764 761 759 755 751 747 741 737 733 728 723 718 713 710 706 704 702 701 699 696 695 695 695 695 695 694 692 693 694 694 695 697 698 699 701 702 702 702 704 706 710 715 718 720 721 722 725 731 736 740 744 748 751 751 752 753 755
807 806 804 804 805 801 794 793 795 796 797 801 804 804 805 805 802 799 797 794 793 795 795 790 783 774 769 770 768 761 757 755 750 747 744 738 732 728 723 717 711 705 701 697 695 693 692 690 689 687 686 687 688 688 688 688 688 688 689 690 692 694 696 696 697 698 699 700 702 705 709 713 716 717 719 725 731 736 740 743 745 748 748 747 749 751
812 812 807 807 808 802 795 794 794 795 802 806 803 800 802 802 801 799 796 792 790 791 792 789 782 776 773 771 767 760 754 749 745 743 741 734 728 722 717 711 705 698 694 690 686 684 682 680 679 678 677 678 679 681 682 683 683 683 684 686 688 690 692 692 693 695 695 696 697 700 704 709 710 709 712 720 728 734 740 743 744 745 745 745 745 747
808 811 809 808 809 805 798 793 792 797 806 805 798 797 799 798 798 798 792 786 785 785 786 786 782 776 771 766 762 757 749 742 738 737 733 727 722 718 712 705 698 691 685 682 678 674 672 670 669 669 669 669 671 674 676 677 677 677 679 681 684 685 687 688 689 691 692 692 693 695 700 705 705 703 705 712 719 727 737 745 744 742 743 744 743 743
804 807 809 808 807 807 806 801 797 800 804 802 796 795 796 794 795 795 787 777 776 779 780 780 778 773 767 761 755 750 743 736 732 729 724 718 714 711 706 698 691 683 676 672 667 664 661 659 658 658 659 661 664 666 668 669 670 672 673 675 678 680 682 684 686 687 688 690 690 691 695 698 699 699 702 708 714 721 732 741 741 738 740 742 742 742
803 805 808 808 807 810 813 809 801 800 802 801 796 793 794 795 795 797 792 779 772 775 776 775 773 767 761 755 749 743 736 730 723 718 715 711 707 702 696 688 681 674 667 661 656 652 651 649 647 648 650 653 655 656 658 661 663 666 668 670 672 675 677 679 681 682 684 686 687 689 690 692 694 696 701 707 713 719 727 734 735 734 736 738 739 740
804 806 806 806 808 811 813 810 803 801 803 803 798 792 793 793 790 794 797 785 773 772 773 772 771 765 758 752 745 738 733 726 718 710 706 704 699 691 684 677 671 664 657 652 646 641 639 638 636 638 642 644 645 647 650 654 657 660 663 665 667 670 672 674 676 677 679 682 685 686 686 688 691 695 699 704 711 717 722 726 728 730 731 732 734 737
803 807 805 806 810 813 816 816 811 806 804 801 796 792 791 790 788 792 795 784 772 770 771 770 768 762 756 750 742 736 733 725 715 706 700 696 689 682 675 668 662 656 649 644 639 632 628 627 626 628 632 634 636 639 644 649 652 655 657 659 662 665 667 669 670 672 675 677 681 683 683 685 689 693 696 701 707 713 718 721 723 726 727 728 730 732
805 808 807 810 814 815 818 821 815 806 801 796 794 793 791 786 786 793 794 780 768 768 769 768 765 759 754 749 743 737 732 723 712 703 696 690 683 675 669 662 656 651 643 637 632 626 621 618 617 619 623 625 628 633 639 644 647 649 651 654 657 661 662 663 665 668 670 673 677 680 681 683 687 690 694 698 703 709 714 717 719 721 723 725 727 729
812 812 809 812 815 815 818 820 813 803 797 793 793 793 787 783 787 796 797 782 770 769 769 766 763 758 753 750 744 738 732 724 715 704 694 687 679 671 664 658 651 646 639 632 626 621 617 614 612 613 616 620 625 630 634 638 641 643 646 650 653 655 656 658 661 664 667 671 675 678 679 682 685 689 692 696 700 705 710 713 716 718 720 722 724 726
816 814 810 812 816 817 817 815 811 804 795 791 793 791 786 789 797 798 791 782 776 773 769 765 763 758 752 749 744 737 729 721 713 704 694 686 677 669 662 655 647 642 636 629 623 618 616 613 611 612 614 618 622 626 629 633 636 639 642 646 648 649 650 654 657 661 665 669 673 676 677 680 683 687 691 695 699 703 707 710 713 715 717 718 720 722
814 815 816 816 816 816 814 813 814 810 797 790 794 794 791 796 800 793 784 779 777 774 770 766 762 757 752 748 741 734 727 719 710 703 694 685 677 669 662 654 648 642 636 629 624 619 617 614 614 615 616 618 621 624 626 629 633 636 639 641 642 644 647 651 654 658 662 667 671 674 676 678 681 685 689 693 697 701 704 707 710 711 713 715 717 719
810 814 818 817 813 814 815 813 811 805 795 792 797 798 795 794 793 789 785 782 777 773 770 766 761 755 751 746 739 732 725 718 710 701 693 685 677 670 663 656 649 644 638 632 626 623 620 619 618 619 619 620 622 624 625 627 630 634 636 636 637 641 645 649 653 657 661 665 669 672 675 677 679 683 686 690 694 698 701 703 705 707 710 712 715 717
808 809 811 811 809 809 811 808 802 796 794 795 796 795 793 791 789 787 787 783 778 774 771 766 761 755 749 744 739 732 725 718 711 702 694 686 678 671 665 658 652 647 641 634 629 626 625 624 623 623 622 622 623 624 625 626 629 632 632 633 635 639 643 647 651 655 659 663 667 670 673 676 678 681 685 688 692 695 698 700 702 705 707 710 713 716
807 807 807 807 806 806 804 801 798 796 795 794 793 792 792 791 788 786 785 782 778 772 768 765 761 755 749 744 739 732 725 718 711 704 696 688 680 673 667 661 655 650 645 638 633 630 628 627 626 625 624 623 623 623 624 626 628 629 630 632 635 638 641 645 649 653 657 661 664 667 671 674 677 680 683 687 689 692 694 697 699 702 705 708 711 713
807 808 807 806 807 807 802 797 796 796 794 793 792 791 791 790 788 786 784 781 777 771 767 764 760 754 749 744 739 733 726 719 713 706 698 691 683 676 670 664 658 654 649 643 638 633 631 629 628 627 626 625 624 624 626 627 629 629 630 632 634 637 640 644 648 651 655 658 661 665 669 672 675 678 681 684 687 690 692 695 697 700 702 705 707 709
805 806 805 806 808 808 802 796 796 795 793 793 792 791 790 789 786 784 782 779 775 771 766 762 758 753 748 744 740 734 727 720 714 708 701 694 686 680 673 667 662 657 652 647 642 637 633 632 630 627 625 625 625 627 628 630 632 632 631 632 635 638 641 644 648 651 654 658 661 664 668 670 674 676 679 682 685 687 690 692 695 697 699 701 702 704
804 804 804 806 808 806 801 797 796 794 791 790 790 790 789 787 785 783 780 777 774 770 765 760 756 753 749 745 740 735 728 721 715 710 705 698 690 683 678 672 665 660 655 651 646 642 638 635 633 630 628 627 627 628 630 633 634 633 633 634 636 638 641 645 648 651 655 658 662 665 668 671 673 676 678 680 683 685 687 689 691 693 695 697 698 700
803 802 803 807 807 804 799 796 796 797 793 790 789 788 787 786 785 782 778 775 773 769 766 761 756 751 748 745 741 736 731 724 718 712 707 702 695 688 682 676 670 664 659 654 650 646 644 642 639 637 635 633 632 632 633 634 635 636 637 638 639 641 643 645 649 652 656 659 662 664 667 670 672 674 676 677 680 682 684 686 688 690 691 693 694 696
798 797 800 803 803 799 795 793 796 798 794 789 788 788 787 785 784 781 778 776 773 769 766 764 759 754 749 745 741 737 733 728 721 715 710 705 699 692 686 680 675 670 665 660 655 651 649 648 646 645 643 642 640 639 638 638 639 640 641 643 644 645 647 648 651 654 656 659 661 663 665 667 669 671 672 674 676 678 681 683 685 687 688 690 691 692